Location: Poughquag
(41.6090°N, 73.6820°W)
Time: 18:53:02
(UTC-04:00)

STARLINK-1333 - Pass Details

Date: 29 May 2020
Orbit: 549 x 550 km, 53.0° (Epoch: 19 September)

Event Time Altitude Azimuth Distance (km) Brightness Sun altitude
Rises 04:40:12 0° 306° (NW) 2,714 7.0 -7.6°
Reaches altitude 10° 04:42:58 10° 325° (NW) 1,822 6.3 -7.2°
Maximum altitude 04:45:58 19° 12° (NNE) 1,343 6.3 -6.8°
Drops below altitude 10° 04:48:58 10° 58° (ENE) 1,822 8.1 -6.3°
Sets 04:51:44 0° 77° (ENE) 2,714 8.6 -5.9°
